Weather History for Danbury, CT

Change the Weather History Date:

Tuesday, March 5, 2013

  Actual Average Record
Temperature  
Mean Temperature 37 °F -  
Max Temperature 46 °F 45 °F 68 °F (1976)
Min Temperature 28 °F 28 °F 7 °F (1978)
Degree Days  
Heating Degree Days 28    
Moisture  
Dew Point 23 °F    
Average Humidity 58    
Maximum Humidity 75    
Minimum Humidity 40    
Precipitation  
Precipitation 0.00 in - - ()
Sea Level Pressure  
Sea Level Pressure 29.98 in    
Wind  
Wind Speed 6 mph (North)    
Max Wind Speed 10 mph    
Max Gust Speed 17 mph    
Visibility 10 miles    
Events      
Averages and records for this station are not official NWS values.
T = Trace of Precipitation, MM = Missing Value Source: NWS Daily Summary

Daily Weather History Graph

Daily Weather History Graph

Search for Another Location

Airport:

Trip Planner

Search our weather history database for the weather conditions in past years. The results will help you decide how hot, cold, wet, or windy it might be!

Date:

Astronomy

Mar. 05, 2013 Rise Set
Actual Time 6:21 AM EST 5:49 PM EST
Civil Twilight 5:54 AM EST 6:17 PM EST
Nautical Twilight 5:22 AM EST 6:49 PM EST
Astronomical Twilight 4:50 AM EST 7:21 PM EST
Moon 1:34 AM EST (3/5) 11:23 AM EST (3/5)
Length of Visible Light 12h 23m
Length of Day
11h 27m
Last Quarter, 41% of the Moon is Illuminated
Mar 5
Last Quarter
Mar 11
New
Mar 19
First Quarter
Mar 27
Full
Apr 3
Last Quarter

Hourly Weather History & Observations

Time (EST) Temp. Windchill Dew Point Humidity Pressure Visibility Wind Dir Wind Speed Gust Speed Precip Events Conditions
12:53 AM 30.0 °F 21.7 °F 19.9 °F 66% 29.89 in 10.0 mi NNW 9.2 mph - N/A   Overcast
2:53 AM 28.9 °F 23.9 °F 19.9 °F 69% 29.91 in 10.0 mi NW 4.6 mph - N/A   Clear
3:53 AM 28.9 °F 25.2 °F 19.9 °F 69% 29.93 in 10.0 mi NNW 3.5 mph - N/A   Clear
4:53 AM 28.0 °F 22.8 °F 21.0 °F 75% 29.95 in 10.0 mi North 4.6 mph - N/A   Clear
5:53 AM 28.9 °F 25.2 °F 21.0 °F 72% 29.97 in 10.0 mi NW 3.5 mph - N/A   Clear
6:53 AM 28.9 °F - 21.9 °F 75% 29.98 in 10.0 mi Calm Calm - N/A   Clear
7:53 AM 30.9 °F 25.2 °F 21.9 °F 69% 30.00 in 10.0 mi NW 5.8 mph - N/A   Clear
8:53 AM 35.1 °F 28.6 °F 21.9 °F 59% 30.00 in 10.0 mi North 8.1 mph - N/A   Clear
9:53 AM 37.9 °F 32.1 °F 23.0 °F 55% 30.00 in 10.0 mi North 8.1 mph - N/A   Clear
10:53 AM 39.9 °F 33.4 °F 23.0 °F 51% 29.99 in 10.0 mi NNW 10.4 mph 17.3 mph N/A   Clear
11:53 AM 41.0 °F 35.2 °F 24.1 °F 51% 29.99 in 10.0 mi NW 9.2 mph - N/A   Clear
12:53 PM 43.0 °F 39.5 °F 24.1 °F 47% 29.98 in 10.0 mi NW 5.8 mph - N/A   Clear
1:53 PM 45.0 °F 41.8 °F 24.1 °F 44% 29.98 in 10.0 mi Variable 5.8 mph - N/A   Clear
2:53 PM 46.0 °F 43.1 °F 23.0 °F 40% 29.99 in 10.0 mi NNE 5.8 mph - N/A   Clear
3:53 PM 45.0 °F 41.2 °F 24.1 °F 44% 29.99 in 10.0 mi NNE 6.9 mph - N/A   Clear
4:53 PM 44.1 °F 40.8 °F 24.1 °F 45% 29.99 in 10.0 mi North 5.8 mph - N/A   Clear
5:53 PM 42.1 °F 38.4 °F 24.1 °F 49% 30.00 in 10.0 mi North 5.8 mph - N/A   Overcast
6:53 PM 41.0 °F 39.0 °F 24.1 °F 51% 30.02 in 10.0 mi North 3.5 mph - N/A   Overcast
7:53 PM 41.0 °F 39.0 °F 25.0 °F 53% 30.03 in 10.0 mi North 3.5 mph - N/A   Overcast
8:53 PM 39.9 °F - 25.0 °F 55% 30.02 in 10.0 mi Calm Calm - N/A   Overcast
9:53 PM 39.0 °F - 26.1 °F 60% 30.02 in 10.0 mi Calm Calm - N/A   Overcast
10:53 PM 37.9 °F 34.4 °F 26.1 °F 62% 30.01 in 10.0 mi ENE 4.6 mph - N/A   Overcast
11:53 PM 37.0 °F 34.5 °F 27.0 °F 67% 30.01 in 10.0 mi East 3.5 mph - N/A   Overcast